SCP
0 0 0 0 0 -0 0 0 0 0 0 0 0 0 0 -0 -0 0 0 0 0 0
0 0 0 0 0 0 0 0 0 0 0 0 0 0 0 0 -0 0 0 0 0 0
0 0 0 0 0 0 0 0 0 0 0 0 0 0 0 -0 0 0 0 0 0 0
0 0 0 0 0 0 0 0 0 0 0 0 0 0 0 0 0 0 0 0 0 0
-0 0 0 0 0 0 0 0 0 0 0 0 0 0 0 0 0 0 0 0 -0 -0
0 0 0 0 0 -0 0 0 -0 -0 -0 0 0 0 0 0 0 0 0 0 0 0
0 0 0 -0 -0 0 -0 0 -0 -0 -0 -0 0 0 0 0 0 0 0 0 0 0
0 0 -0 0 0 0 -0 -0 0 -0 -0 -0 0 0 0 0 -0 -0 -0 0 0 -0
0 -0 -0 -0 0 0 -0 -0 -0 -0 -0 -0 0 0 -0 -0 -0 -0 -0 -0 0 0
0 -0 -0 -0 -0 -0 0 -0 -0 0 -0 -0 0 0 -0 -0 0 0 0 0 0 -0
0 -0 -0 -0 -0 -0 0 0 -0 0 0 -0 -0 -0 -0 -0 -0 -0 -0 0 0 -0
0 0 -0 0 0 0 -0 -0 -0 -0 -0 -0 -0 -0 -0 -0 -0 0 0 0 -0 -0
0 0 0 -0 -0 -0 0 0 0 -0 -0 -0 -0 -0 -0 -0 0 0 0 0 -0 -0
0 0 0 0 0 0 -0 -0 -0 -0 -0 -0 0 -0 -0 -0 0 0 0 0 -0 -0
Wind_Speed_500mb
4 5 6 3 4 10 9 7 5 3 2 8 12 14 18 16 20 25 30 38 38 25
7 7 4 2 5 6 9 10 7 2 2 4 14 17 13 15 22 25 35 31 22 36
10 7 5 4 4 5 8 9 8 5 2 3 15 17 17 15 16 25 34 37 31 27
12 6 6 6 6 5 5 6 7 8 4 9 19 11 9 15 16 20 23 36 31 26
15 10 8 5 5 3 5 8 9 8 8 10 21 17 22 20 31 38 40 33 36 47
17 13 10 6 5 3 3 5 9 10 14 30 26 19 21 25 33 29 28 39 39 38
18 15 6 6 8 9 11 13 19 23 30 31 24 20 26 30 31 32 34 35 26 29
17 8 6 11 10 15 22 29 29 32 31 26 20 22 27 33 36 47 39 25 26 23
19 17 17 18 18 27 35 36 35 34 28 23 26 28 29 29 36 44 36 31 31 23
27 22 23 23 31 26 31 32 31 29 22 24 22 28 24 27 32 34 30 27 30 28
36 26 28 30 37 28 29 28 25 19 19 19 23 22 26 23 29 32 28 24 27 29
39 33 32 37 34 29 28 25 25 20 20 26 28 29 27 32 33 32 33 33 30 32
45 38 40 38 34 25 27 31 30 30 32 33 32 34 29 28 33 39 44 41 40 35
50 47 41 40 42 38 37 42 42 41 41 37 33 37 31 29 32 40 45 46 44 40
Wind_Direction_500mb
166 208 213 209 222 164 162 146 200 221 134 44 148 120 157 158 148 163 172 170 172 209
181 220 203 174 227 158 155 176 192 188 29 52 149 146 149 159 173 157 166 167 176 188
180 225 217 180 209 173 176 195 204 202 191 110 152 141 125 126 137 197 198 187 185 184
167 205 227 221 237 208 201 217 215 219 203 148 162 150 131 123 125 129 164 161 169 177
175 187 226 209 252 281 211 209 225 213 197 175 149 141 140 113 129 141 145 162 151 156
179 199 210 189 199 214 226 179 194 193 162 149 145 127 116 149 147 143 144 153 150 162
189 198 198 151 157 163 175 130 134 141 140 143 142 136 131 148 151 161 141 151 144 147
192 166 153 160 139 132 142 128 125 127 129 130 135 158 142 143 154 162 157 160 158 151
168 168 155 152 151 130 136 136 132 128 130 137 128 124 146 144 148 164 175 177 173 165
174 173 161 161 152 148 144 144 148 150 143 139 139 136 142 154 161 171 177 191 200 198
175 181 170 164 166 163 159 159 158 156 151 150 155 154 159 160 164 173 173 170 168 179
172 180 176 168 168 173 171 167 159 164 166 160 152 151 142 164 151 160 168 173 168 163
175 173 175 170 169 170 171 171 159 150 148 152 134 131 148 162 157 148 148 148 145 145
179 179 176 170 174 165 161 161 156 150 140 138 131 137 141 147 154 155 149 146 144 142
Wind_Speed_850mb
4 5 6 3 4 10 9 7 5 3 2 8 12 14 18 16 20 25 30 38 38 25
7 7 4 2 5 6 9 10 7 2 2 4 14 17 13 15 22 25 35 31 22 36
10 7 5 4 4 5 8 9 8 5 2 3 15 17 17 15 16 25 34 37 31 27
12 6 6 6 6 5 5 6 7 8 4 9 19 11 9 15 16 20 23 36 31 26
15 10 8 5 5 3 5 8 9 8 8 10 21 17 22 20 31 38 40 33 36 47
17 13 10 6 5 3 3 5 9 10 14 30 26 19 21 25 33 29 28 39 39 38
18 15 6 6 8 9 11 13 19 23 30 31 24 20 26 30 31 32 34 35 26 29
17 8 6 11 10 15 22 29 29 32 31 26 20 22 27 33 36 47 39 25 26 23
19 17 17 18 18 27 35 36 35 34 28 23 26 28 29 29 36 44 36 31 31 23
27 22 23 23 31 26 31 32 31 29 22 24 22 28 24 27 32 34 30 27 30 28
36 26 28 30 37 28 29 28 25 19 19 19 23 22 26 23 29 32 28 24 27 29
39 33 32 37 34 29 28 25 25 20 20 26 28 29 27 32 33 32 33 33 30 32
45 38 40 38 34 25 27 31 30 30 32 33 32 34 29 28 33 39 44 41 40 35
50 47 41 40 42 38 37 42 42 41 41 37 33 37 31 29 32 40 45 46 44 40
Wind_Direction_850mb
166 208 213 209 222 164 162 146 200 221 134 44 148 120 157 158 148 163 172 170 172 209
181 220 203 174 227 158 155 176 192 188 29 52 149 146 149 159 173 157 166 167 176 188
180 225 217 180 209 173 176 195 204 202 191 110 152 141 125 126 137 197 198 187 185 184
167 205 227 221 237 208 201 217 215 219 203 148 162 150 131 123 125 129 164 161 169 177
175 187 226 209 252 281 211 209 225 213 197 175 149 141 140 113 129 141 145 162 151 156
179 199 210 189 199 214 226 179 194 193 162 149 145 127 116 149 147 143 144 153 150 162
189 198 198 151 157 163 175 130 134 141 140 143 142 136 131 148 151 161 141 151 144 147
192 166 153 160 139 132 142 128 125 127 129 130 135 158 142 143 154 162 157 160 158 151
168 168 155 152 151 130 136 136 132 128 130 137 128 124 146 144 148 164 175 177 173 165
174 173 161 161 152 148 144 144 148 150 143 139 139 136 142 154 161 171 177 191 200 198
175 181 170 164 166 163 159 159 158 156 151 150 155 154 159 160 164 173 173 170 168 179
172 180 176 168 168 173 171 167 159 164 166 160 152 151 142 164 151 160 168 173 168 163
175 173 175 170 169 170 171 171 159 150 148 152 134 131 148 162 157 148 148 148 145 145
179 179 176 170 174 165 161 161 156 150 140 138 131 137 141 147 154 155 149 146 144 142